Weather in Andriivka

Ukraine / Dnipropetrovsk Region     48°14′00″N   33°48′30″E
temp.,
°C
wind,
m/s
gust,
m/s
humid.,
%
clouds,
%
prec.,
mm/h
press.,
hPa
HPBL,
m
26 october, tue
tue2600:00+2e22600 0.0 103411
03:00+1se22630 0.0 103411
06:000sse22650 0.0 103416
09:00+3sse34560 0.0 1034176
12:00+8s44375 0.0 1033813
15:00+10s34275 0.0 10311086
18:00+6sse45345 0.0 103060
21:00+4sse34405 0.0 103052
27 october, wed
wed2700:00+3s48635 0.0 1030123
03:00+1s35785 0.0 102974
06:000s33800 0.0 102924
09:00+3s35670 0.0 1028155
12:00+9sw45430 0.0 1027734
15:00+12wsw45363 0.0 1025993
18:00+8w33590 0.0 102520
21:00+6wsw3374100 0.0 102522
28 october, thu
thu2800:00+6w3383100 0.0 102527
03:00+5wnw2278100 0.0 102519
06:00+5w2275100 0.0 102520
09:00+7wsw3572100 0.0 1026136
12:00+14w575019 0.0 1024788
15:00+16w684464 0.0 10221130
18:00+13w485981 0.0 1022172
21:00+12w4106192 0.0 1022295
29 october, fri
fri2900:00+12nw4968100 0.0 1023421
03:00+11nnw4982100 0.0 1024359
06:00+9n36927 0.0 1025109
09:00+9nne468811 0.0 1027265
12:00+14nne34587 0.0 1028934
15:00+15nne33475 0.0 10281209
18:00+11ne34615 0.0 102947
21:00+9ene34690 0.0 103050
30 october, sat
sat3000:00+7ese49820 0.0 1032174
03:00+6ese36850 0.0 1032111
06:00+5ese36865 0.0 1033107
09:00+6se476937 0.0 1034221
12:00+12se56446 0.0 1034689
15:00+14se45304 0.0 1033918
18:00+9se34400 0.0 103348
21:00+7se46420 0.0 103382